Location: Quedlinburg
(51.7921°N, 11.1414°E)
Time: 01:33:46
(UTC+01:00)

SO-50 - Visible Passes

Search period start: 07 March 2026 00:00
Search period end: 17 March 2026 00:00
Orbit: 568 x 673 km, 64.6° (Epoch: 6 March)

Date Brightness Start Highest point End Pass type
(mag) Time Alt. Az. Time Alt. Az. Time Alt. Az.
7 Mar ? 02:48:57 25° NE 02:48:57 25° NE 02:51:50 10° E visible
7 Mar ? 04:26:09 34° NW 04:28:15 88° SW 04:33:00 10° SE visible
7 Mar ? 06:04:30 10° WNW 06:07:35 17° WSW 06:10:38 10° SSW visible
7 Mar ? 20:17:33 10° S 20:19:24 22° S 20:19:24 22° S visible
8 Mar ? 03:07:11 31° ENE 03:07:11 31° ENE 03:10:16 10° ESE visible
8 Mar ? 04:44:24 36° WNW 04:45:57 52° SW 04:50:33 10° SSE visible
8 Mar ? 18:58:17 10° SE 19:00:24 13° ESE 19:01:38 12° E visible
8 Mar ? 20:34:54 10° SSW 20:38:56 62° S 20:38:56 62° S visible
8 Mar ? 22:15:42 10° W 22:16:13 13° W 22:16:13 13° W visible
9 Mar ? 03:25:48 32° ESE 03:25:48 32° ESE 03:28:28 10° ESE visible
9 Mar ? 05:03:03 29° WSW 05:03:30 29° WSW 05:07:35 10° S visible
9 Mar ? 19:14:03 10° SSE 19:17:44 24° ESE 19:20:52 13° ENE visible
9 Mar ? 20:52:38 10° SW 20:57:19 69° NW 20:58:08 56° NNE visible
9 Mar ? 22:34:13 10° WNW 22:35:25 15° WNW 22:35:25 15° WNW visible
10 Mar ? 03:44:51 20° SE 03:44:51 20° SE 03:46:21 10° SE visible
10 Mar ? 05:22:08 15° SW 05:22:08 15° SW 05:23:51 10° SSW visible
10 Mar ? 19:30:51 10° SSW 19:35:13 42° ESE 19:39:42 10° NE visible
10 Mar ? 21:10:43 10° WSW 21:15:14 44° NW 21:16:56 31° NNE visible
10 Mar ? 22:52:48 10° WNW 22:54:11 15° NW 22:54:11 15° NW visible
11 Mar ? 19:48:11 10° SSW 19:52:51 74° SE 19:57:38 10° NE visible
11 Mar ? 21:29:03 10° W 21:33:16 31° NNW 21:35:19 22° NNE visible
11 Mar ? 23:11:19 10° NW 23:12:31 14° NW 23:12:31 14° NW visible
12 Mar ? 20:05:56 10° SW 20:10:37 68° NW 20:15:25 10° NE visible
12 Mar ? 21:47:33 10° WNW 21:51:24 24° NNW 21:53:19 19° NNE visible
12 Mar ? 23:29:39 10° NW 23:30:31 13° NNW 23:30:31 13° NNW visible
13 Mar ? 18:44:05 10° SSW 18:48:29 43° ESE 18:53:01 10° NE visible
13 Mar ? 20:24:01 10° WSW 20:28:31 43° NW 20:33:08 10° NE visible
13 Mar ? 22:06:07 10° WNW 22:09:38 20° NNW 22:11:05 18° N visible
13 Mar ? 23:47:45 10° NW 23:48:16 12° NNW 23:48:16 12° NNW visible
14 Mar ? 19:01:26 10° SW 19:06:06 76° SE 19:10:54 10° NE visible
14 Mar ? 20:42:20 10° W 20:46:32 31° NNW 20:50:49 10° NNE visible
14 Mar ? 22:24:37 10° NW 22:27:55 18° N 22:28:40 17° N visible
15 Mar ? 00:05:38 10° NNW 00:05:49 11° NNW 00:05:49 11° NNW visible
15 Mar ? 19:19:12 10° SW 19:23:52 66° NW 19:28:40 10° NE visible
15 Mar ? 21:00:50 10° WNW 21:04:41 24° NNW 21:08:34 10° NNE visible
15 Mar ? 22:42:55 10° NW 22:46:07 18° N 22:46:07 18° N visible
16 Mar ? 19:37:16 10° WSW 19:41:46 42° NW 19:46:21 10° NE visible
16 Mar ? 21:19:23 10° WNW 21:22:54 20° NNW 21:26:19 10° NNE visible
16 Mar ? 23:00:59 10° NW 23:03:28 18° N 23:03:28 18° N visible
